Tillbaka till svenska Fidonet
English   Information   Debug  
FILM   0/18
FNEWS_PUBLISH   5026
FN_SYSOP   42247
FN_SYSOP_OLD1   71952
FTP_FIDO   0/2
FTSC_PUBLIC   0/13979
FUNNY   0/4886
GENEALOGY.EUR   0/71
GET_INFO   105
GOLDED   0/408
HAM   908/16786
HOLYSMOKE   0/6791
HOT_SITES   0/1
HTMLEDIT   0/71
HUB203   466
HUB_100   264
HUB_400   39
HUMOR   0/29
IC   1192/2851
INTERNET   0/424
INTERUSER   0/3
IP_CONNECT   719
JAMNNTPD   0/233
JAMTLAND   0/47
KATTY_KORNER   0/41
LAN   0/16
LINUX-USER   0/19
LINUXHELP   0/1155
LINUX   0/22427
LINUX_BBS   0/957
mail   18.68
mail_fore_ok   249
MENSA   0/341
MODERATOR   0/102
MONTE   0/992
MOSCOW_OKLAHOMA   0/1245
MUFFIN   0/783
MUSIC   0/321
N203_STAT   938
N203_SYSCHAT   313
NET203   321
NET204   69
NET_DEV   0/10
NORD.ADMIN   0/101
NORD.CHAT   0/2572
NORD.FIDONET   189
NORD.HARDWARE   0/28
NORD.KULTUR   0/114
NORD.PROG   0/32
NORD.SOFTWARE   0/88
NORD.TEKNIK   0/58
NORD   0/453
OCCULT_CHAT   0/93
OS2BBS   0/787
OS2DOSBBS   0/580
OS2HW   0/42
OS2INET   0/37
OS2LAN   0/134
OS2PROG   0/36
OS2REXX   0/113
OS2USER-L   207
OS2   0/4835
OSDEBATE   0/18996
PASCAL   0/490
PERL   0/457
PHP   0/45
POINTS   0/405
POLITICS   0/29554
POL_INC   0/14731
PSION   103
R20_ADMIN   1133
R20_AMATORRADIO   0/2
R20_BEST_OF_FIDONET   16
R20_CHAT   0/897
R20_DEPP   0/3
R20_DEV   400
R20_ECHO2   1932
R20_ECHOPRES   0/35
R20_ESTAT   0/719
R20_FIDONETPROG...
...RAM.MYPOINT
  0/2
R20_FIDONETPROGRAM   0/22
R20_FIDONET   0/248
R20_FILEFIND   0/24
R20_FILEFOUND   0/22
R20_HIFI   0/3
R20_INFO2   3826
R20_INTERNET   0/12940
R20_INTRESSE   0/60
R20_INTR_KOM   0/99
R20_KANDIDAT.CHAT   42
R20_KANDIDAT   28
R20_KOM_DEV   112
R20_KONTROLL   0/13360
R20_KORSET   0/18
R20_LOKALTRAFIK   0/24
R20_MODERATOR   0/1852
R20_NC   76
R20_NET200   245
R20_NETWORK.OTH...
...ERNETS
  0/13
R20_OPERATIVSYS...
...TEM.LINUX
  0/44
R20_PROGRAMVAROR   0/1
R20_REC2NEC   534
R20_SFOSM   0/341
R20_SF   0/108
R20_SPRAK.ENGLISH   0/1
R20_SQUISH   107
R20_TEST   2
R20_WORST_OF_FIDONET   20
RAR   0/9
RA_MULTI   106
RA_UTIL   0/162
REGCON.EUR   0/2072
REGCON   0/13
SCIENCE   0/1206
SF   0/239
SHAREWARE_SUPPORT   0/5146
SHAREWRE   0/14
SIMPSONS   0/169
STATS_OLD1   0/2539.065
STATS_OLD2   0/2530
STATS_OLD3   0/2395.095
STATS_OLD4   0/1692.25
SURVIVOR   0/495
SYSOPS_CORNER   0/3
SYSOP   0/84
TAGLINES   0/112
TEAMOS2   0/4530
TECH   0/2617
TEST.444   0/105
TRAPDOOR   0/19
TREK   0/755
TUB   0/290
UFO   0/40
UNIX   0/1316
USA_EURLINK   0/102
USR_MODEMS   0/1
VATICAN   0/2740
VIETNAM_VETS   0/14
VIRUS   0/378
VIRUS_INFO   0/201
VISUAL_BASIC   0/473
WHITEHOUSE   0/5187
WIN2000   0/101
WIN32   0/30
WIN95   33/4291
WIN95_OLD1   40366/70272
WINDOWS   0/1517
WWB_SYSOP   0/419
WWB_TECH   0/810
ZCC-PUBLIC   0/1
ZEC   4

 
4DOS   0/134
ABORTION   0/7
ALASKA_CHAT   0/506
ALLFIX_FILE   0/1313
ALLFIX_FILE_OLD1   0/7997
ALT_DOS   0/152
AMATEUR_RADIO   0/1039
AMIGASALE   0/14
AMIGA   0/331
AMIGA_INT   0/1
AMIGA_PROG   0/20
AMIGA_SYSOP   0/26
ANIME   0/15
ARGUS   0/924
ASCII_ART   0/340
ASIAN_LINK   0/651
ASTRONOMY   0/417
AUDIO   0/92
AUTOMOBILE_RACING   0/105
BABYLON5   0/17862
BAG   135
BATPOWER   0/361
BBBS.ENGLISH   0/382
BBSLAW   0/109
BBS_ADS   0/5290
BBS_INTERNET   0/507
BIBLE   705/3563
BINKD   0/1119
BINKLEY   0/215
BLUEWAVE   0/2173
CABLE_MODEMS   0/25
CBM   0/46
CDRECORD   0/66
CDROM   0/20
CLASSIC_COMPUTER   0/378
COMICS   0/15
CONSPRCY   0/899
COOKING   42382
COOKING_OLD1   0/24719
COOKING_OLD2   0/40862
COOKING_OLD3   530/37489
COOKING_OLD4   0/35496
COOKING_OLD5   9370
C_ECHO   0/189
C_PLUSPLUS   0/31
DIRTY_DOZEN   0/201
DOORGAMES   0/2388
DOS_INTERNET   0/196
duplikat   6102
ECHOLIST   0/18295
EC_SUPPORT   0/318
ELECTRONICS   0/359
ELEKTRONIK.GER   1534
ENET.LINGUISTIC   0/13
ENET.POLITICS   0/4
ENET.SOFT   0/11701
ENET.SYSOP   34388
ENET.TALKS   0/32
ENGLISH_TUTOR   0/2000
EVOLUTION   0/1335
FDECHO   0/217
FDN_ANNOUNCE   0/7068
FIDONEWS   25209
FIDONEWS_OLD1   0/49742
FIDONEWS_OLD2   0/35949
FIDONEWS_OLD3   0/30874
FIDONEWS_OLD4   0/37224
FIDO_SYSOP   12977
FIDO_UTIL   0/180
FILEFIND   0/209
FILEGATE   0/212
Möte HAM, 16786 texter
 lista första sista föregående nästa
Text 920, 764 rader
Skriven 2006-03-24 01:31:43 av Amsat List (1:323/120.0)
Ärende: 
========
SB KEPS @ AMSAT  $ORB06082.O
Orbital Elements  06082.OSCAR

HR AMSAT ORBITAL ELEMENTS FOR OSCAR SATELLITES
FROM WA5QGD FORT WORTH,TX March 23, 2006
Send SUBSCRIBE KEPS/UNSUBSCRIBE KEPS to majordomo@amsat.org only
BID: ORB06082.O
TO ALL RADIO AMATEURS BT

Satellite: AO-07
Catalog number: 07530
Epoch time:      06081.75621645
Element set:    0565
Inclination:      101.5824 deg
RA of node:       126.8107 deg
Eccentricity:    0.0012230
Arg of perigee:   054.3393 deg
Mean anomaly:     305.8817 deg
Mean motion:   12.53572143 rev/day
Decay rate:       -2.8e-07 rev/day^2
Epoch rev:           43455
Checksum:              278

Satellite: AO-10
Catalog number: 14129
Epoch time:      06081.83548570
Element set:     268
Inclination:      027.4514 deg
RA of node:       343.4451 deg
Eccentricity:    0.6029726
Arg of perigee:   271.1037 deg
Mean anomaly:     024.8536 deg
Mean motion:   02.05870165 rev/day
Decay rate:      -2.40e-06 rev/day^2
Epoch rev:           17127
Checksum:              286

Satellite: UO-11
Catalog number: 14781
Epoch time:      06081.54351368
Element set:    0024
Inclination:      098.2102 deg
RA of node:       089.9127 deg
Eccentricity:    0.0008939
Arg of perigee:   177.8247 deg
Mean anomaly:     182.2990 deg
Mean motion:   14.79394845 rev/day
Decay rate:       2.51e-06 rev/day^2
Epoch rev:           18295
Checksum:              330

Satellite: RS-10/11
Catalog number: 18129
Epoch time:      06081.88766916
Element set:    0957
Inclination:      082.9248 deg
RA of node:       031.9864 deg
Eccentricity:    0.0011867
Arg of perigee:   341.7004 deg
Mean anomaly:     018.3721 deg
Mean motion:   13.72771759 rev/day
Decay rate:        1.5e-07 rev/day^2
Epoch rev:           93931
Checksum:              330

Satellite: RS-15
Catalog number: 23439
Epoch time:      06081.89635569
Element set:    0978
Inclination:      064.8206 deg
RA of node:       016.7848 deg
Eccentricity:    0.0168014
Arg of perigee:   268.8261 deg
Mean anomaly:     089.3409 deg
Mean motion:   11.27552086 rev/day
Decay rate:       -3.9e-07 rev/day^2
Epoch rev:           46281
Checksum:              345

Satellite: FO-29
Catalog number: 24278
Epoch time:      06081.94086559
Element set:    0191
Inclination:      098.5147 deg
RA of node:       098.3899 deg
Eccentricity:    0.0350568
Arg of perigee:   173.3859 deg
Mean anomaly:     187.2091 deg
Mean motion:   13.52919688 rev/day
Decay rate:       -4.1e-07 rev/day^2
Epoch rev:           47388
Checksum:              376

Satellite: SO-33
Catalog number: 25509
Epoch time:      06081.76374040
Element set:    0610
Inclination:      031.4288 deg
RA of node:       257.8627 deg
Eccentricity:    0.0355079
Arg of perigee:   080.9706 deg
Mean anomaly:     283.0942 deg
Mean motion:   14.28080713 rev/day
Decay rate:       3.13e-06 rev/day^2
Epoch rev:           38667
Checksum:              311

Satellite: AO-40
Catalog number: 26609
Epoch time:      06080.15099403
Element set:    0691
Inclination:      007.1911 deg
RA of node:       250.1542 deg
Eccentricity:    0.7929373
Arg of perigee:   142.6662 deg
Mean anomaly:     314.5275 deg
Mean motion:   01.25585599 rev/day
Decay rate:      -2.69e-06 rev/day^2
Epoch rev:           02474
Checksum:              314

Satellite: VO-52
Catalog number: 28650
Epoch time:      06079.21422937
Element set:     281
Inclination:      097.8768 deg
RA of node:       153.8093 deg
Eccentricity:    0.0026370
Arg of perigee:   292.3908 deg
Mean anomaly:     067.4525 deg
Mean motion:   14.81064782 rev/day
Decay rate:      -1.25e-06 rev/day^2
Epoch rev:            4721
Checksum:              319

/EX
SB KEPS @ AMSAT  $ORB06082.D
Orbital Elements  06082.MICROS

HR AMSAT ORBITAL ELEMENTS FOR THE MICROSATS
FROM WA5QGD FORT WORTH,TX March 23, 2006
Send SUBSCRIBE KEPS/UNSUBSCRIBE KEPS to majordomo@amsat.org only
BID: ORB06082.D
TO ALL RADIO AMATEURS BT

Satellite: AO-16
Catalog number: 20439
Epoch time:      06082.53855897
Element set:     703
Inclination:      098.1909 deg
RA of node:       097.2825 deg
Eccentricity:    0.0012003
Arg of perigee:   088.9120 deg
Mean anomaly:     271.3440 deg
Mean motion:   14.31713742 rev/day
Decay rate:       -1.9e-07 rev/day^2
Epoch rev:           84406
Checksum:              302

Satellite: WO-18
Catalog number: 20441
Epoch time:      06081.90023518
Element set:    0903
Inclination:      098.1963 deg
RA of node:       101.2781 deg
Eccentricity:    0.0012389
Arg of perigee:   088.8129 deg
Mean anomaly:     271.4473 deg
Mean motion:   14.31784804 rev/day
Decay rate:        3.0e-08 rev/day^2
Epoch rev:           84403
Checksum:              292

Satellite: LO-19
Catalog number: 20442
Epoch time:      06081.60500674
Element set:    0642
Inclination:      098.1980 deg
RA of node:       105.7992 deg
Eccentricity:    0.0012948
Arg of perigee:   090.9617 deg
Mean anomaly:     269.3054 deg
Mean motion:   14.31957499 rev/day
Decay rate:       -2.0e-07 rev/day^2
Epoch rev:           84406
Checksum:              318

Satellite: UO-22
Catalog number: 21575
Epoch time:      06081.79196161
Element set:     655
Inclination:      098.2863 deg
RA of node:       042.2548 deg
Eccentricity:    0.0007325
Arg of perigee:   339.1955 deg
Mean anomaly:     020.8927 deg
Mean motion:   14.39538274 rev/day
Decay rate:       -3.0e-08 rev/day^2
Epoch rev:           77058
Checksum:              325

Satellite: KO-23
Catalog number: 22077
Epoch time:      06082.77992627
Element set:     744
Inclination:      066.0844 deg
RA of node:       280.9169 deg
Eccentricity:    0.0004375
Arg of perigee:   185.0046 deg
Mean anomaly:     175.0929 deg
Mean motion:   12.86435874 rev/day
Decay rate:       -3.7e-07 rev/day^2
Epoch rev:           63955
Checksum:              340

